Time,TemperatureF,DewpointF,PressureIn,WindDirection,WindDirectionDegrees,WindSpeedMPH,WindSpeedGustMPH,Humidity,HourlyPrecipIn,Conditions,Clouds,dailyrainin,SolarRadiationWatts/m^2,SoftwareType,DateUTC
2011-06-13 00:00:00,58.1,57.0,29.60,SSW,200,7.0,15.0,96,0.00,,,0.46,0.0,meteohub,2011-06-12 23:00:00,
2011-06-13 00:05:00,58.1,57.0,29.60,SSW,194,4.0,15.0,96,0.00,,,0.46,0.0,meteohub,2011-06-12 23:05:00,
2011-06-13 00:10:00,58.1,57.0,29.60,SW,214,3.0,14.0,96,0.00,,,0.46,0.0,meteohub,2011-06-12 23:10:00,
2011-06-13 00:15:00,58.1,57.0,29.60,South,186,7.0,13.0,96,0.00,,,0.46,0.0,meteohub,2011-06-12 23:15:00,
2011-06-13 00:20:00,58.3,57.2,29.60,SSW,206,4.0,12.0,96,0.00,,,0.46,0.0,meteohub,2011-06-12 23:20:00,
2011-06-13 00:25:00,58.3,57.2,29.60,SW,219,5.0,12.0,96,0.00,,,0.46,0.0,meteohub,2011-06-12 23:25:00,
2011-06-13 00:26:00,58.3,57.2,29.60,SSW,213,4.0,12.0,96,0.00,,,0.46,0.0,meteohub,2011-06-12 23:26:00,
2011-06-13 00:31:00,58.3,57.2,29.60,SSW,211,4.0,11.0,96,0.00,,,0.46,0.0,meteohub,2011-06-12 23:31:00,
2011-06-13 00:32:00,58.3,57.2,29.60,SSW,202,6.0,11.0,96,0.00,,,0.46,0.0,meteohub,2011-06-12 23:32:00,
2011-06-13 00:37:00,58.3,57.2,29.60,SSW,207,5.0,11.0,96,0.00,,,0.46,0.0,meteohub,2011-06-12 23:37:00,
2011-06-13 00:38:00,58.3,57.2,29.60,SSW,211,5.0,11.0,96,0.00,,,0.46,0.0,meteohub,2011-06-12 23:38:00,
2011-06-13 00:42:00,58.3,57.2,29.60,SSW,197,2.0,11.0,96,0.00,,,0.46,0.0,meteohub,2011-06-12 23:42:00,
2011-06-13 00:43:00,58.3,57.2,29.61,SSW,198,0.0,11.0,96,0.00,,,0.46,0.0,meteohub,2011-06-12 23:43:00,
2011-06-13 00:48:00,58.3,57.2,29.61,SSW,205,3.0,11.0,96,0.00,,,0.46,0.0,meteohub,2011-06-12 23:48:00,
2011-06-13 00:53:00,58.3,57.2,29.61,SSW,200,4.0,9.0,96,0.00,,,0.46,0.0,meteohub,2011-06-12 23:53:00,
2011-06-13 00:58:00,58.3,57.2,29.61,SSW,198,5.0,10.0,96,0.00,,,0.46,0.0,meteohub,2011-06-12 23:58:00,
2011-06-13 01:03:00,58.3,57.2,29.61,South,182,3.0,10.0,96,0.00,,,0.46,0.0,meteohub,2011-06-13 00:03:00,
2011-06-13 01:08:00,58.3,57.2,29.61,SW,215,2.0,10.0,96,0.00,,,0.00,0.0,meteohub,2011-06-13 00:08:00,
2011-06-13 01:13:00,58.3,57.2,29.61,SW,214,2.0,7.0,96,0.00,,,0.00,0.0,meteohub,2011-06-13 00:13:00,
2011-06-13 01:14:00,58.3,57.2,29.61,SW,214,6.0,7.0,96,0.00,,,0.00,0.0,meteohub,2011-06-13 00:14:00,
2011-06-13 01:18:00,58.3,57.2,29.61,SSW,208,1.0,8.0,96,0.00,,,0.00,0.0,meteohub,2011-06-13 00:18:00,
2011-06-13 01:19:00,58.3,57.2,29.61,SW,221,3.0,8.0,96,0.00,,,0.00,0.0,meteohub,2011-06-13 00:19:00,
2011-06-13 01:24:00,58.3,57.2,29.61,SSW,209,2.0,9.0,96,0.00,,,0.00,0.0,meteohub,2011-06-13 00:24:00,
2011-06-13 01:25:00,58.3,57.2,29.61,SW,218,4.0,9.0,96,0.00,,,0.00,0.0,meteohub,2011-06-13 00:25:00,
2011-06-13 01:29:00,58.3,57.2,29.61,SSW,209,4.0,9.0,96,0.00,,,0.00,0.0,meteohub,2011-06-13 00:29:00,
2011-06-13 01:30:00,58.3,57.2,29.61,SSW,208,4.0,9.0,96,0.00,,,0.00,0.0,meteohub,2011-06-13 00:30:00,
2011-06-13 01:34:00,58.3,57.2,29.61,South,186,2.0,9.0,96,0.00,,,0.00,0.0,meteohub,2011-06-13 00:34:00,
2011-06-13 01:35:00,58.3,57.2,29.61,South,186,2.0,9.0,96,0.00,,,0.00,0.0,meteohub,2011-06-13 00:35:00,
2011-06-13 01:37:00,58.3,57.2,29.61,SSW,192,3.0,9.0,96,0.00,,,0.00,0.0,meteohub,2011-06-13 00:37:00,
2011-06-13 01:40:00,58.3,57.2,29.61,SSW,203,4.0,9.0,96,0.00,,,0.00,0.0,meteohub,2011-06-13 00:40:00,
2011-06-13 01:41:00,58.3,57.2,29.61,SSW,203,1.0,9.0,96,0.00,,,0.00,0.0,meteohub,2011-06-13 00:41:00,
2011-06-13 01:42:00,58.3,57.2,29.61,SSW,205,2.0,9.0,96,0.00,,,0.00,0.0,meteohub,2011-06-13 00:42:00,
2011-06-13 01:46:00,58.3,57.2,29.61,SSW,205,0.0,6.0,96,0.00,,,0.00,0.0,meteohub,2011-06-13 00:46:00,
2011-06-13 01:47:00,58.3,57.2,29.62,SSW,205,0.0,6.0,96,0.00,,,0.00,0.0,meteohub,2011-06-13 00:47:00,
2011-06-13 01:52:00,58.1,57.0,29.62,SSW,204,2.0,6.0,96,0.00,,,0.00,0.0,meteohub,2011-06-13 00:52:00,
2011-06-13 01:57:00,58.1,57.0,29.62,SSW,204,0.0,5.0,96,0.00,,,0.00,0.0,meteohub,2011-06-13 00:57:00,
2011-06-13 02:02:00,58.1,57.0,29.62,SSW,201,4.0,4.0,96,0.00,,,0.00,0.0,meteohub,2011-06-13 01:02:00,
2011-06-13 02:07:00,58.1,57.0,29.62,SSW,205,3.0,7.0,96,0.00,,,0.00,0.0,meteohub,2011-06-13 01:07:00,
2011-06-13 02:12:00,58.1,57.0,29.62,SSW,211,1.0,7.0,96,0.00,,,0.00,0.0,meteohub,2011-06-13 01:12:00,
2011-06-13 02:17:00,57.9,56.8,29.62,SSW,210,2.0,7.0,96,0.00,,,0.00,0.0,meteohub,2011-06-13 01:17:00,
2011-06-13 02:18:00,57.9,56.8,29.62,SSW,210,1.0,7.0,96,0.00,,,0.00,0.0,meteohub,2011-06-13 01:18:00,
2011-06-13 02:23:00,57.9,56.8,29.62,SSW,210,1.0,7.0,96,0.00,,,0.00,0.0,meteohub,2011-06-13 01:23:00,
2011-06-13 02:25:00,57.9,56.8,29.62,SSW,210,2.0,7.0,96,0.00,,,0.00,0.0,meteohub,2011-06-13 01:25:00,
2011-06-13 02:29:00,57.9,56.8,29.62,SSW,210,3.0,7.0,96,0.00,,,0.00,0.0,meteohub,2011-06-13 01:29:00,
2011-06-13 02:31:00,57.9,56.8,29.62,SSW,210,0.0,6.0,96,0.00,,,0.00,0.0,meteohub,2011-06-13 01:31:00,
2011-06-13 02:32:00,57.9,56.8,29.62,SSW,210,2.0,6.0,96,0.00,,,0.00,0.0,meteohub,2011-06-13 01:32:00,
2011-06-13 02:35:00,57.9,56.8,29.62,SSW,208,1.0,6.0,96,0.00,,,0.00,0.0,meteohub,2011-06-13 01:35:00,
2011-06-13 02:36:00,57.9,56.8,29.62,SSW,203,4.0,6.0,96,0.00,,,0.00,0.0,meteohub,2011-06-13 01:36:00,
2011-06-13 02:37:00,57.9,56.8,29.62,SSW,200,2.0,6.0,96,0.00,,,0.00,0.0,meteohub,2011-06-13 01:37:00,
2011-06-13 02:42:00,57.9,56.8,29.62,SSW,200,1.0,6.0,96,0.00,,,0.00,0.0,meteohub,2011-06-13 01:42:00,
2011-06-13 02:47:00,57.9,56.8,29.62,SSW,200,0.0,6.0,96,0.00,,,0.00,0.0,meteohub,2011-06-13 01:47:00,
2011-06-13 02:52:00,57.7,56.3,29.62,SSW,198,4.0,6.0,95,0.00,,,0.00,0.0,meteohub,2011-06-13 01:52:00,
2011-06-13 02:53:00,57.7,56.3,29.62,SSW,198,0.0,6.0,95,0.00,,,0.00,0.0,meteohub,2011-06-13 01:53:00,
2011-06-13 02:57:00,57.7,56.3,29.62,South,170,7.0,7.0,95,0.00,,,0.00,0.0,meteohub,2011-06-13 01:57:00,
2011-06-13 03:02:00,57.7,56.3,29.62,South,191,5.0,7.0,95,0.00,,,0.00,0.0,meteohub,2011-06-13 02:02:00,
2011-06-13 03:07:00,57.7,56.3,29.62,SSW,192,0.0,8.0,95,0.00,,,0.00,0.0,meteohub,2011-06-13 02:07:00,
2011-06-13 03:08:00,57.7,56.3,29.62,SSW,192,1.0,8.0,95,0.00,,,0.00,0.0,meteohub,2011-06-13 02:08:00,
2011-06-13 03:13:00,57.7,56.3,29.62,SSW,200,3.0,9.0,95,0.00,,,0.00,0.0,meteohub,2011-06-13 02:13:00,
2011-06-13 03:18:00,57.7,56.3,29.62,SSW,196,1.0,9.0,95,0.00,,,0.00,0.0,meteohub,2011-06-13 02:18:00,
2011-06-13 03:23:00,57.7,56.3,29.62,South,173,4.0,9.0,95,0.00,,,0.00,0.0,meteohub,2011-06-13 02:23:00,
2011-06-13 03:24:00,57.7,56.3,29.62,South,178,1.0,9.0,95,0.00,,,0.00,0.0,meteohub,2011-06-13 02:24:00,
2011-06-13 03:28:00,57.7,56.3,29.62,South,180,1.0,8.0,95,0.00,,,0.00,0.0,meteohub,2011-06-13 02:28:00,
2011-06-13 03:29:00,57.7,56.3,29.62,South,188,5.0,8.0,95,0.00,,,0.00,0.0,meteohub,2011-06-13 02:29:00,
2011-06-13 03:34:00,57.7,56.3,29.62,SSW,198,2.0,6.0,95,0.00,,,0.00,0.0,meteohub,2011-06-13 02:34:00,
2011-06-13 03:35:00,57.7,56.3,29.62,SSW,194,2.0,6.0,95,0.00,,,0.00,0.0,meteohub,2011-06-13 02:35:00,
2011-06-13 03:39:00,57.7,56.3,29.62,South,182,3.0,6.0,95,0.00,,,0.00,0.0,meteohub,2011-06-13 02:39:00,
2011-06-13 03:40:00,57.7,56.3,29.62,South,182,0.0,8.0,95,0.00,,,0.00,0.0,meteohub,2011-06-13 02:40:00,
2011-06-13 03:44:00,57.7,56.3,29.62,SSE,165,2.0,8.0,95,0.00,,,0.00,0.0,meteohub,2011-06-13 02:44:00,
2011-06-13 03:46:00,57.7,56.3,29.62,South,178,1.0,8.0,95,0.00,,,0.00,0.0,meteohub,2011-06-13 02:46:00,
2011-06-13 03:50:00,57.7,56.3,29.62,SSW,207,6.0,8.0,95,0.00,,,0.00,0.0,meteohub,2011-06-13 02:50:00,
2011-06-13 03:51:00,57.7,56.3,29.62,South,186,2.0,9.0,95,0.00,,,0.00,0.0,meteohub,2011-06-13 02:51:00,
2011-06-13 03:55:00,57.7,56.3,29.62,SSE,161,4.0,9.0,95,0.00,,,0.00,0.0,meteohub,2011-06-13 02:55:00,
2011-06-13 04:00:00,57.9,56.5,29.61,South,190,4.0,9.0,95,0.00,,,0.00,0.0,meteohub,2011-06-13 03:00:00,
2011-06-13 04:01:00,57.9,56.5,29.61,South,191,5.0,9.0,95,0.00,,,0.00,0.0,meteohub,2011-06-13 03:01:00,
2011-06-13 04:05:00,57.9,56.5,29.61,SSW,196,1.0,6.0,95,0.00,,,0.00,0.0,meteohub,2011-06-13 03:05:00,
2011-06-13 04:06:00,57.9,56.5,29.61,SSW,197,5.0,6.0,95,0.00,,,0.00,0.0,meteohub,2011-06-13 03:06:00,
2011-06-13 04:11:00,57.7,56.3,29.61,SSW,192,2.0,6.0,95,0.00,,,0.00,0.0,meteohub,2011-06-13 03:11:00,
2011-06-13 04:16:00,57.7,56.3,29.61,SSW,192,0.0,7.0,95,0.00,,,0.00,0.0,meteohub,2011-06-13 03:16:00,
2011-06-13 04:21:00,57.7,56.3,29.61,South,190,3.0,7.0,95,0.00,,,0.00,0.0,meteohub,2011-06-13 03:21:00,
2011-06-13 04:26:00,57.7,56.3,29.61,South,188,2.0,7.0,95,0.00,,,0.00,0.0,meteohub,2011-06-13 03:26:00,
2011-06-13 04:27:00,57.7,56.3,29.61,SSW,203,3.0,7.0,95,0.00,,,0.00,0.0,meteohub,2011-06-13 03:27:00,
2011-06-13 04:31:00,57.7,56.3,29.62,SSW,198,1.0,9.0,95,0.00,,,0.00,0.0,meteohub,2011-06-13 03:31:00,
2011-06-13 04:32:00,57.7,56.3,29.62,SSW,203,6.0,9.0,95,0.00,,,0.00,0.0,meteohub,2011-06-13 03:32:00,
2011-06-13 04:36:00,57.7,56.3,29.62,SSW,199,4.0,9.0,95,0.00,,,0.00,0.0,meteohub,2011-06-13 03:36:00,
2011-06-13 04:37:00,57.7,56.3,29.62,SSW,199,0.0,9.0,95,0.00,,,0.00,0.0,meteohub,2011-06-13 03:37:00,
2011-06-13 04:38:00,57.7,56.3,29.62,SSW,199,0.0,9.0,95,0.00,,,0.00,0.0,meteohub,2011-06-13 03:38:00,
2011-06-13 04:43:00,57.7,56.3,29.62,SW,225,3.0,9.0,95,0.00,,,0.00,0.0,meteohub,2011-06-13 03:43:00,
2011-06-13 04:48:00,57.7,56.3,29.62,SSW,198,4.0,10.0,95,0.00,,,0.00,0.0,meteohub,2011-06-13 03:48:00,
2011-06-13 04:53:00,57.7,56.3,29.62,SSW,192,1.0,10.0,95,0.00,,,0.00,0.0,meteohub,2011-06-13 03:53:00,
2011-06-13 04:58:00,57.7,56.3,29.62,SSW,207,2.0,10.0,95,0.00,,,0.00,0.0,meteohub,2011-06-13 03:58:00,
2011-06-13 05:00:00,57.7,56.3,29.62,South,181,6.0,10.0,95,0.00,,,0.00,5.0,meteohub,2011-06-13 04:00:00,
2011-06-13 05:01:00,57.7,56.3,29.62,SSW,196,3.0,8.0,95,0.00,,,0.00,0.0,meteohub,2011-06-13 04:01:00,
2011-06-13 05:06:00,57.7,56.3,29.62,SSW,203,3.0,9.0,95,0.00,,,0.00,5.0,meteohub,2011-06-13 04:06:00,
2011-06-13 05:11:00,57.7,56.3,29.62,SSW,201,3.0,11.0,95,0.00,,,0.00,5.0,meteohub,2011-06-13 04:11:00,
2011-06-13 05:16:00,57.7,56.3,29.62,SSW,200,5.0,11.0,95,0.00,,,0.00,5.0,meteohub,2011-06-13 04:16:00,
2011-06-13 05:21:00,57.7,56.3,29.62,SSW,192,4.0,11.0,95,0.00,,,0.00,5.0,meteohub,2011-06-13 04:21:00,
2011-06-13 05:22:00,57.7,56.3,29.62,SSW,196,7.0,11.0,95,0.00,,,0.00,5.0,meteohub,2011-06-13 04:22:00,
2011-06-13 05:27:00,57.9,56.5,29.62,SSW,195,6.0,11.0,95,0.00,,,0.00,7.0,meteohub,2011-06-13 04:27:00,
2011-06-13 05:28:00,57.9,56.5,29.62,SSW,199,4.0,11.0,95,0.00,,,0.00,7.0,meteohub,2011-06-13 04:28:00,
2011-06-13 05:32:00,57.9,56.5,29.62,SW,215,6.0,11.0,95,0.00,,,0.00,9.0,meteohub,2011-06-13 04:32:00,
2011-06-13 05:33:00,57.9,56.5,29.62,SSW,194,2.0,11.0,95,0.00,,,0.00,9.0,meteohub,2011-06-13 04:33:00,
2011-06-13 05:34:00,57.9,56.5,29.62,SSW,193,5.0,11.0,95,0.00,,,0.00,9.0,meteohub,2011-06-13 04:34:00,
2011-06-13 05:37:00,57.9,56.5,29.62,SSW,208,1.0,11.0,95,0.00,,,0.00,12.0,meteohub,2011-06-13 04:37:00,
2011-06-13 05:39:00,57.9,56.5,29.62,SSW,199,2.0,11.0,95,0.00,,,0.00,12.0,meteohub,2011-06-13 04:39:00,
2011-06-13 05:44:00,57.9,56.5,29.62,SSW,202,3.0,9.0,95,0.00,,,0.00,11.0,meteohub,2011-06-13 04:44:00,
2011-06-13 05:49:00,57.9,56.5,29.63,SSW,200,4.0,8.0,95,0.00,,,0.00,19.0,meteohub,2011-06-13 04:49:00,
2011-06-13 05:54:00,57.9,56.5,29.63,SW,228,3.0,8.0,95,0.00,,,0.00,19.0,meteohub,2011-06-13 04:54:00,
2011-06-13 05:59:00,57.9,56.5,29.63,SW,215,0.0,8.0,95,0.00,,,0.00,16.0,meteohub,2011-06-13 04:59:00,
2011-06-13 06:04:00,58.1,56.7,29.63,SSW,202,1.0,8.0,95,0.00,,,0.00,12.0,meteohub,2011-06-13 05:04:00,
2011-06-13 06:10:00,58.1,56.7,29.64,SSW,211,4.0,10.0,95,0.00,,,0.00,18.0,meteohub,2011-06-13 05:10:00,
2011-06-13 06:15:00,58.1,56.7,29.63,SSW,207,7.0,10.0,95,0.00,,,0.00,18.0,meteohub,2011-06-13 05:15:00,
2011-06-13 06:20:00,58.1,56.7,29.64,SW,214,5.0,12.0,95,0.00,,,0.00,18.0,meteohub,2011-06-13 05:20:00,
2011-06-13 06:25:00,58.1,56.7,29.64,SSW,205,3.0,13.0,95,0.00,,,0.00,18.0,meteohub,2011-06-13 05:25:00,
2011-06-13 06:26:00,58.1,56.7,29.64,SW,220,5.0,13.0,95,0.00,,,0.00,18.0,meteohub,2011-06-13 05:26:00,
2011-06-13 06:31:00,58.1,56.7,29.64,SSW,193,5.0,13.0,95,0.00,,,0.00,21.0,meteohub,2011-06-13 05:31:00,
2011-06-13 06:32:00,58.3,56.8,29.64,SSW,194,3.0,13.0,95,0.00,,,0.00,21.0,meteohub,2011-06-13 05:32:00,
2011-06-13 06:33:00,58.1,56.3,29.64,SW,215,4.0,13.0,94,0.00,,,0.00,19.0,meteohub,2011-06-13 05:33:00,
2011-06-13 06:37:00,58.3,56.5,29.64,SW,227,1.0,13.0,94,0.00,,,0.00,26.0,meteohub,2011-06-13 05:37:00,
2011-06-13 06:39:00,58.3,56.5,29.64,SW,215,8.0,13.0,94,0.00,,,0.00,32.0,meteohub,2011-06-13 05:39:00,
2011-06-13 06:43:00,58.3,56.5,29.65,SSW,209,3.0,11.0,94,0.00,,,0.00,33.0,meteohub,2011-06-13 05:43:00,
2011-06-13 06:44:00,58.3,56.5,29.65,SSW,208,4.0,11.0,94,0.00,,,0.00,40.0,meteohub,2011-06-13 05:44:00,
2011-06-13 06:49:00,58.3,56.5,29.65,WSW,244,6.0,13.0,94,0.00,,,0.00,33.0,meteohub,2011-06-13 05:49:00,
2011-06-13 06:54:00,58.3,56.5,29.65,SW,225,2.0,13.0,94,0.00,,,0.00,19.0,meteohub,2011-06-13 05:54:00,
2011-06-13 06:59:00,58.3,56.5,29.65,SSW,213,7.0,13.0,94,0.00,,,0.00,23.0,meteohub,2011-06-13 05:59:00,
2011-06-13 07:04:00,58.3,56.5,29.66,SSW,202,6.0,13.0,94,0.00,,,0.00,26.0,meteohub,2011-06-13 06:04:00,
2011-06-13 07:05:00,58.3,56.5,29.66,SW,224,5.0,13.0,94,0.00,,,0.00,26.0,meteohub,2011-06-13 06:05:00,
2011-06-13 07:10:00,58.3,56.5,29.66,SW,224,5.0,11.0,94,0.00,,,0.00,21.0,meteohub,2011-06-13 06:10:00,
2011-06-13 07:11:00,58.3,56.5,29.66,SW,222,1.0,11.0,94,0.00,,,0.00,21.0,meteohub,2011-06-13 06:11:00,
2011-06-13 07:15:00,58.3,56.5,29.66,WSW,243,10.0,11.0,94,0.00,,,0.00,21.0,meteohub,2011-06-13 06:15:00,
2011-06-13 07:20:00,58.3,56.5,29.67,SW,221,5.0,12.0,94,0.00,,,0.00,30.0,meteohub,2011-06-13 06:20:00,
2011-06-13 07:21:00,58.3,56.5,29.67,SW,232,3.0,12.0,94,0.00,,,0.00,30.0,meteohub,2011-06-13 06:21:00,
2011-06-13 07:26:00,58.3,56.5,29.67,SW,227,4.0,12.0,94,0.00,,,0.00,65.0,meteohub,2011-06-13 06:26:00,
2011-06-13 07:27:00,58.3,56.3,29.67,WSW,239,7.0,12.0,93,0.00,,,0.00,90.0,meteohub,2011-06-13 06:27:00,
2011-06-13 07:31:00,58.3,56.3,29.67,SSW,202,11.0,13.0,93,0.00,,,0.00,90.0,meteohub,2011-06-13 06:31:00,
2011-06-13 07:32:00,58.3,56.3,29.67,WSW,250,11.0,13.0,93,0.00,,,0.00,88.0,meteohub,2011-06-13 06:32:00,
2011-06-13 07:33:00,58.3,56.3,29.68,West,262,9.0,13.0,93,0.00,,,0.00,88.0,meteohub,2011-06-13 06:33:00,
2011-06-13 07:34:00,58.3,56.3,29.68,WSW,256,5.0,13.0,93,0.00,,,0.00,93.0,meteohub,2011-06-13 06:34:00,
2011-06-13 07:36:00,58.3,56.3,29.68,West,277,12.0,13.0,93,0.00,,,0.00,47.0,meteohub,2011-06-13 06:36:00,
2011-06-13 07:37:00,58.3,56.3,29.68,WSW,257,10.0,13.0,93,0.00,,,0.00,47.0,meteohub,2011-06-13 06:37:00,
2011-06-13 07:40:00,58.3,56.3,29.68,NW,313,4.0,13.0,93,0.00,,,0.00,16.0,meteohub,2011-06-13 06:40:00,
2011-06-13 07:41:00,58.3,56.3,29.68,NW,308,7.0,14.0,93,0.00,,,0.00,16.0,meteohub,2011-06-13 06:41:00,
2011-06-13 07:42:00,58.3,56.3,29.68,West,279,7.0,14.0,93,0.00,,,0.00,16.0,meteohub,2011-06-13 06:42:00,
2011-06-13 07:47:00,58.3,55.9,29.68,West,276,3.0,18.0,92,0.01,,,0.01,40.0,meteohub,2011-06-13 06:47:00,
2011-06-13 07:52:00,57.9,55.6,29.69,WSW,251,7.0,18.0,92,0.02,,,0.02,47.0,meteohub,2011-06-13 06:52:00,
2011-06-13 07:57:00,57.7,55.4,29.69,NW,306,4.0,18.0,92,0.02,,,0.02,63.0,meteohub,2011-06-13 06:57:00,
2011-06-13 08:02:00,57.6,55.2,29.69,NW,311,5.0,13.0,92,0.02,,,0.02,77.0,meteohub,2011-06-13 07:02:00,
2011-06-13 08:07:00,57.6,55.2,29.70,West,279,8.0,10.0,92,0.02,,,0.02,69.0,meteohub,2011-06-13 07:07:00,
2011-06-13 08:12:00,57.4,55.0,29.70,NW,305,3.0,11.0,92,0.02,,,0.02,90.0,meteohub,2011-06-13 07:12:00,
2011-06-13 08:18:00,57.4,55.4,29.70,WNW,282,2.0,13.0,93,0.02,,,0.02,116.0,meteohub,2011-06-13 07:18:00,
2011-06-13 08:23:00,57.0,55.0,29.70,West,271,6.0,13.0,93,0.02,,,0.02,121.0,meteohub,2011-06-13 07:23:00,
2011-06-13 08:28:00,56.8,54.9,29.71,NW,306,6.0,13.0,93,0.02,,,0.02,76.0,meteohub,2011-06-13 07:28:00,
2011-06-13 08:29:00,56.8,54.9,29.71,West,279,6.0,13.0,93,0.02,,,0.02,69.0,meteohub,2011-06-13 07:29:00,
2011-06-13 08:33:00,56.7,54.7,29.71,West,280,3.0,12.0,93,0.02,,,0.02,60.0,meteohub,2011-06-13 07:33:00,
2011-06-13 08:37:00,56.7,54.7,29.71,WSW,256,4.0,14.0,93,0.02,,,0.02,49.0,meteohub,2011-06-13 07:37:00,
2011-06-13 08:42:00,56.7,54.7,29.71,WSW,254,7.0,14.0,93,0.02,,,0.02,53.0,meteohub,2011-06-13 07:42:00,
2011-06-13 08:47:00,56.5,54.5,29.72,WNW,286,3.0,14.0,93,0.02,,,0.02,54.0,meteohub,2011-06-13 07:47:00,
2011-06-13 08:52:00,56.5,54.5,29.72,WNW,282,8.0,13.0,93,0.01,,,0.02,74.0,meteohub,2011-06-13 07:52:00,
2011-06-13 08:57:00,56.3,54.3,29.72,West,274,3.0,14.0,93,0.01,,,0.02,86.0,meteohub,2011-06-13 07:57:00,
2011-06-13 09:02:00,56.1,54.1,29.73,West,274,7.0,14.0,93,0.01,,,0.02,98.0,meteohub,2011-06-13 08:02:00,
2011-06-13 09:07:00,56.1,54.1,29.72,WNW,287,4.0,14.0,93,0.01,,,0.02,83.0,meteohub,2011-06-13 08:07:00,
2011-06-13 09:12:00,56.3,54.3,29.73,West,264,3.0,13.0,93,0.01,,,0.02,93.0,meteohub,2011-06-13 08:12:00,
2011-06-13 09:17:00,56.3,54.3,29.73,West,269,0.0,13.0,93,0.00,,,0.02,69.0,meteohub,2011-06-13 08:17:00,
2011-06-13 09:22:00,56.3,54.3,29.73,West,276,1.0,13.0,93,0.00,,,0.02,54.0,meteohub,2011-06-13 08:22:00,
2011-06-13 09:23:00,56.3,54.3,29.73,West,276,0.0,13.0,93,0.00,,,0.02,54.0,meteohub,2011-06-13 08:23:00,
2011-06-13 09:27:00,56.3,54.3,29.73,West,278,6.0,8.0,93,0.00,,,0.02,69.0,meteohub,2011-06-13 08:27:00,
2011-06-13 09:28:00,56.3,54.3,29.73,West,278,4.0,8.0,93,0.00,,,0.02,69.0,meteohub,2011-06-13 08:28:00,
2011-06-13 09:33:00,56.3,54.3,29.73,West,269,8.0,8.0,93,0.00,,,0.02,42.0,meteohub,2011-06-13 08:33:00,
2011-06-13 09:38:00,56.1,54.1,29.74,WNW,287,1.0,10.0,93,0.00,,,0.02,40.0,meteohub,2011-06-13 08:38:00,
2011-06-13 09:40:00,56.1,54.1,29.74,West,268,6.0,10.0,93,0.00,,,0.02,42.0,meteohub,2011-06-13 08:40:00,
2011-06-13 09:43:00,56.1,53.8,29.74,West,267,6.0,12.0,92,0.00,,,0.02,65.0,meteohub,2011-06-13 08:43:00,
2011-06-13 09:45:00,56.1,53.8,29.74,WSW,255,4.0,12.0,92,0.00,,,0.02,54.0,meteohub,2011-06-13 08:45:00,
2011-06-13 09:49:00,56.1,53.8,29.74,WSW,248,5.0,12.0,92,0.00,,,0.02,47.0,meteohub,2011-06-13 08:49:00,
2011-06-13 09:54:00,55.9,53.6,29.74,West,267,4.0,11.0,92,0.00,,,0.02,39.0,meteohub,2011-06-13 08:54:00,
2011-06-13 09:59:00,55.9,53.6,29.75,West,265,8.0,11.0,92,0.00,,,0.02,63.0,meteohub,2011-06-13 08:59:00,
2011-06-13 10:04:00,55.9,53.6,29.75,West,275,6.0,11.0,92,0.00,,,0.02,74.0,meteohub,2011-06-13 09:04:00,
2011-06-13 10:09:00,55.9,53.6,29.75,West,259,2.0,11.0,92,0.00,,,0.02,105.0,meteohub,2011-06-13 09:09:00,
2011-06-13 10:14:00,55.9,53.6,29.75,West,262,5.0,11.0,92,0.00,,,0.02,90.0,meteohub,2011-06-13 09:14:00,
2011-06-13 10:15:00,55.9,53.6,29.75,WSW,242,10.0,11.0,92,0.00,,,0.02,93.0,meteohub,2011-06-13 09:15:00,
2011-06-13 10:19:00,55.9,53.4,29.75,West,265,7.0,10.0,91,0.00,,,0.02,135.0,meteohub,2011-06-13 09:19:00,
2011-06-13 10:20:00,55.9,53.4,29.75,WNW,290,3.0,10.0,91,0.00,,,0.02,113.0,meteohub,2011-06-13 09:20:00,
2011-06-13 10:25:00,56.1,53.6,29.75,West,263,8.0,13.0,91,0.00,,,0.02,86.0,meteohub,2011-06-13 09:25:00,
2011-06-13 10:26:00,56.1,53.6,29.75,WNW,288,12.0,13.0,91,0.00,,,0.02,79.0,meteohub,2011-06-13 09:26:00,
2011-06-13 10:27:00,56.3,53.8,29.75,West,275,6.0,13.0,91,0.00,,,0.02,105.0,meteohub,2011-06-13 09:27:00,
2011-06-13 10:30:00,56.1,53.6,29.76,West,266,5.0,15.0,91,0.00,,,0.02,134.0,meteohub,2011-06-13 09:30:00,
2011-06-13 10:31:00,56.3,53.8,29.76,NNW,328,8.0,15.0,91,0.00,,,0.02,153.0,meteohub,2011-06-13 09:31:00,
2011-06-13 10:35:00,56.1,53.2,29.75,WNW,295,5.0,15.0,90,0.00,,,0.02,142.0,meteohub,2011-06-13 09:35:00,
2011-06-13 10:36:00,56.1,53.2,29.76,WNW,293,6.0,15.0,90,0.00,,,0.02,151.0,meteohub,2011-06-13 09:36:00,
2011-06-13 10:37:00,56.1,53.2,29.76,WNW,294,7.0,15.0,90,0.00,,,0.02,127.0,meteohub,2011-06-13 09:37:00,
2011-06-13 10:38:00,56.1,53.2,29.75,WNW,292,4.0,15.0,90,0.00,,,0.02,127.0,meteohub,2011-06-13 09:38:00,
2011-06-13 10:41:00,56.1,53.2,29.76,WNW,299,5.0,15.0,90,0.00,,,0.02,100.0,meteohub,2011-06-13 09:41:00,
2011-06-13 10:43:00,56.1,53.2,29.76,WNW,291,8.0,15.0,90,0.00,,,0.02,102.0,meteohub,2011-06-13 09:43:00,
2011-06-13 10:48:00,56.1,52.9,29.76,WNW,286,2.0,15.0,89,0.00,,,0.02,128.0,meteohub,2011-06-13 09:48:00,
2011-06-13 10:53:00,56.1,52.9,29.76,WNW,292,8.0,14.0,89,0.00,,,0.02,250.0,meteohub,2011-06-13 09:53:00,
2011-06-13 10:58:00,56.5,53.2,29.77,NW,308,2.0,14.0,89,0.00,,,0.02,169.0,meteohub,2011-06-13 09:58:00,
2011-06-13 11:03:00,56.5,52.9,29.77,West,270,5.0,15.0,88,0.00,,,0.02,160.0,meteohub,2011-06-13 10:03:00,
2011-06-13 11:08:00,56.7,53.1,29.77,West,274,9.0,15.0,88,0.00,,,0.02,220.0,meteohub,2011-06-13 10:08:00,
2011-06-13 11:13:00,56.8,53.1,29.77,West,269,5.0,15.0,87,0.00,,,0.02,195.0,meteohub,2011-06-13 10:13:00,
2011-06-13 11:18:00,56.8,53.1,29.78,West,273,10.0,15.0,87,0.00,,,0.02,155.0,meteohub,2011-06-13 10:18:00,
2011-06-13 11:19:00,56.8,52.7,29.78,WNW,284,8.0,15.0,86,0.00,,,0.02,155.0,meteohub,2011-06-13 10:19:00,
2011-06-13 11:23:00,56.8,52.7,29.78,NW,308,13.0,16.0,86,0.00,,,0.02,160.0,meteohub,2011-06-13 10:23:00,
2011-06-13 11:25:00,56.7,52.5,29.78,NW,310,4.0,16.0,86,0.00,,,0.02,158.0,meteohub,2011-06-13 10:25:00,
2011-06-13 11:26:00,56.7,52.5,29.78,West,278,3.0,22.0,86,0.00,,,0.02,148.0,meteohub,2011-06-13 10:26:00,
2011-06-13 11:29:00,56.7,52.5,29.78,West,270,7.0,22.0,86,0.00,,,0.02,151.0,meteohub,2011-06-13 10:29:00,
2011-06-13 11:30:00,56.7,52.5,29.78,NW,312,5.0,22.0,86,0.00,,,0.02,167.0,meteohub,2011-06-13 10:30:00,
2011-06-13 11:31:00,56.7,52.5,29.78,West,265,4.0,22.0,86,0.00,,,0.02,156.0,meteohub,2011-06-13 10:31:00,
2011-06-13 11:36:00,56.8,52.7,29.78,West,265,4.0,22.0,86,0.00,,,0.02,193.0,meteohub,2011-06-13 10:36:00,
2011-06-13 11:41:00,56.7,52.5,29.78,NW,311,5.0,15.0,86,0.00,,,0.02,156.0,meteohub,2011-06-13 10:41:00,
2011-06-13 11:46:00,56.7,52.5,29.79,WNW,282,5.0,15.0,86,0.00,,,0.02,142.0,meteohub,2011-06-13 10:46:00,
2011-06-13 11:51:00,56.5,52.0,29.79,WNW,285,6.0,15.0,85,0.00,,,0.02,102.0,meteohub,2011-06-13 10:51:00,
2011-06-13 11:56:00,56.5,52.0,29.79,NW,324,9.0,15.0,85,0.00,,,0.02,186.0,meteohub,2011-06-13 10:56:00,
2011-06-13 12:01:00,56.5,52.0,29.79,WNW,286,4.0,16.0,85,0.00,,,0.02,221.0,meteohub,2011-06-13 11:01:00,
2011-06-13 12:06:00,56.8,52.0,29.79,WNW,302,3.0,16.0,84,0.00,,,0.02,294.0,meteohub,2011-06-13 11:06:00,
2011-06-13 12:11:00,57.2,52.3,29.80,SW,234,6.0,16.0,84,0.00,,,0.02,288.0,meteohub,2011-06-13 11:11:00,
2011-06-13 12:16:00,57.7,52.7,29.80,WNW,283,6.0,15.0,83,0.00,,,0.02,336.0,meteohub,2011-06-13 11:16:00,
2011-06-13 12:21:00,58.1,52.9,29.80,NW,307,9.0,14.0,83,0.00,,,0.02,237.0,meteohub,2011-06-13 11:21:00,
2011-06-13 12:22:00,58.1,52.9,29.80,West,274,5.0,14.0,83,0.00,,,0.02,237.0,meteohub,2011-06-13 11:22:00,
2011-06-13 12:26:00,58.3,52.9,29.80,West,278,11.0,14.0,82,0.00,,,0.02,209.0,meteohub,2011-06-13 11:26:00,
2011-06-13 12:27:00,58.3,52.9,29.80,WNW,299,8.0,14.0,82,0.00,,,0.02,209.0,meteohub,2011-06-13 11:27:00,
2011-06-13 12:30:00,58.3,52.9,29.80,NNW,329,8.0,14.0,82,0.00,,,0.02,178.0,meteohub,2011-06-13 11:30:00,
2011-06-13 12:31:00,58.1,52.3,29.80,NW,320,4.0,14.0,81,0.00,,,0.02,229.0,meteohub,2011-06-13 11:31:00,
2011-06-13 12:32:00,58.1,52.3,29.80,NW,311,7.0,14.0,81,0.00,,,0.02,229.0,meteohub,2011-06-13 11:32:00,
2011-06-13 12:35:00,57.9,52.5,29.81,WNW,301,10.0,12.0,82,0.00,,,0.02,209.0,meteohub,2011-06-13 11:35:00,
2011-06-13 12:36:00,57.9,52.5,29.81,NW,317,7.0,12.0,82,0.00,,,0.02,200.0,meteohub,2011-06-13 11:36:00,
2011-06-13 12:37:00,57.9,52.5,29.81,NW,315,4.0,12.0,82,0.00,,,0.02,200.0,meteohub,2011-06-13 11:37:00,
2011-06-13 12:42:00,57.7,52.0,29.81,NW,311,9.0,12.0,81,0.00,,,0.02,163.0,meteohub,2011-06-13 11:42:00,
2011-06-13 12:43:00,57.6,51.8,29.81,WNW,292,8.0,12.0,81,0.00,,,0.02,174.0,meteohub,2011-06-13 11:43:00,
2011-06-13 12:47:00,57.6,51.8,29.81,WNW,299,12.0,13.0,81,0.00,,,0.02,232.0,meteohub,2011-06-13 11:47:00,
2011-06-13 12:49:00,57.6,51.8,29.81,WNW,303,2.0,13.0,81,0.00,,,0.02,290.0,meteohub,2011-06-13 11:49:00,
2011-06-13 12:52:00,57.9,52.2,29.81,West,261,5.0,15.0,81,0.00,,,0.02,322.0,meteohub,2011-06-13 11:52:00,
2011-06-13 12:56:00,58.6,52.5,29.81,West,265,13.0,15.0,80,0.00,,,0.02,323.0,meteohub,2011-06-13 11:56:00,
2011-06-13 12:57:00,58.6,52.5,29.81,WNW,286,10.0,15.0,80,0.00,,,0.02,313.0,meteohub,2011-06-13 11:57:00,
2011-06-13 13:02:00,59.0,52.2,29.82,West,279,7.0,16.0,78,0.00,,,0.02,297.0,meteohub,2011-06-13 12:02:00,
2011-06-13 13:07:00,59.2,51.6,29.82,WSW,250,5.0,16.0,76,0.00,,,0.02,290.0,meteohub,2011-06-13 12:07:00,
2011-06-13 13:08:00,59.2,51.6,29.82,West,276,6.0,16.0,76,0.00,,,0.02,272.0,meteohub,2011-06-13 12:08:00,
2011-06-13 13:13:00,59.2,51.6,29.82,WNW,291,3.0,16.0,76,0.00,,,0.02,281.0,meteohub,2011-06-13 12:13:00,
2011-06-13 13:18:00,59.2,51.6,29.82,NW,325,5.0,15.0,76,0.00,,,0.02,250.0,meteohub,2011-06-13 12:18:00,
2011-06-13 13:23:00,59.2,51.6,29.83,WNW,298,4.0,17.0,76,0.00,,,0.02,207.0,meteohub,2011-06-13 12:23:00,
2011-06-13 13:24:00,59.2,51.6,29.83,WNW,290,15.0,17.0,76,0.00,,,0.02,214.0,meteohub,2011-06-13 12:24:00,
2011-06-13 13:25:00,59.2,51.6,29.83,WNW,298,11.0,17.0,76,0.00,,,0.02,216.0,meteohub,2011-06-13 12:25:00,
2011-06-13 13:28:00,58.6,51.1,29.83,WNW,296,6.0,17.0,76,0.00,,,0.02,243.0,meteohub,2011-06-13 12:28:00,
2011-06-13 13:30:00,58.5,50.9,29.83,West,275,6.0,17.0,76,0.00,,,0.02,220.0,meteohub,2011-06-13 12:30:00,
2011-06-13 13:35:00,58.5,50.9,29.83,NW,316,6.0,17.0,76,0.00,,,0.02,387.0,meteohub,2011-06-13 12:35:00,
2011-06-13 13:40:00,58.8,51.3,29.83,WNW,297,5.0,20.0,76,0.00,,,0.02,214.0,meteohub,2011-06-13 12:40:00,
2011-06-13 13:43:00,58.6,50.7,29.84,WNW,289,8.0,20.0,75,0.00,,,0.02,250.0,meteohub,2011-06-13 12:43:00,
2011-06-13 13:45:00,58.6,50.7,29.83,West,261,5.0,19.0,75,0.00,,,0.02,274.0,meteohub,2011-06-13 12:45:00,
2011-06-13 13:48:00,59.0,51.8,29.83,WNW,303,12.0,19.0,77,0.00,,,0.02,346.0,meteohub,2011-06-13 12:48:00,
2011-06-13 13:50:00,59.4,51.4,29.84,WNW,293,9.0,17.0,75,0.00,,,0.02,346.0,meteohub,2011-06-13 12:50:00,
2011-06-13 13:55:00,59.5,51.3,29.84,WNW,300,10.0,17.0,74,0.00,,,0.02,255.0,meteohub,2011-06-13 12:55:00,
2011-06-13 14:00:00,59.2,51.6,29.84,WNW,293,9.0,17.0,76,0.00,,,0.02,193.0,meteohub,2011-06-13 13:00:00,
2011-06-13 14:05:00,58.6,51.4,29.85,WNW,303,7.0,17.0,77,0.00,,,0.02,142.0,meteohub,2011-06-13 13:05:00,
2011-06-13 14:06:00,58.5,51.3,29.85,West,276,5.0,17.0,77,0.00,,,0.02,135.0,meteohub,2011-06-13 13:06:00,
2011-06-13 14:11:00,58.3,51.1,29.85,WNW,285,4.0,16.0,77,0.00,,,0.02,209.0,meteohub,2011-06-13 13:11:00,
2011-06-13 14:16:00,58.3,51.1,29.85,West,267,9.0,15.0,77,0.00,,,0.02,338.0,meteohub,2011-06-13 13:16:00,
2011-06-13 14:21:00,58.8,50.5,29.85,NW,304,2.0,20.0,74,0.00,,,0.02,313.0,meteohub,2011-06-13 13:21:00,
2011-06-13 14:22:00,58.8,50.5,29.85,NW,315,8.0,20.0,74,0.00,,,0.02,313.0,meteohub,2011-06-13 13:22:00,
2011-06-13 14:27:00,59.2,50.9,29.85,NW,306,3.0,20.0,74,0.00,,,0.02,323.0,meteohub,2011-06-13 13:27:00,
2011-06-13 14:32:00,59.2,50.2,29.85,WNW,293,6.0,20.0,72,0.00,,,0.02,288.0,meteohub,2011-06-13 13:32:00,
2011-06-13 14:33:00,59.2,50.2,29.85,NNW,328,8.0,20.0,72,0.00,,,0.02,322.0,meteohub,2011-06-13 13:33:00,
2011-06-13 14:34:00,59.2,50.2,29.85,WNW,290,6.0,20.0,72,0.00,,,0.02,322.0,meteohub,2011-06-13 13:34:00,
2011-06-13 14:36:00,59.7,51.1,29.85,WSW,251,16.0,16.0,73,0.00,,,0.02,410.0,meteohub,2011-06-13 13:36:00,
2011-06-13 14:38:00,60.1,51.4,29.85,West,281,14.0,16.0,73,0.00,,,0.02,410.0,meteohub,2011-06-13 13:38:00,
2011-06-13 14:42:00,61.5,51.6,29.85,WNW,292,11.0,16.0,70,0.00,,,0.02,410.0,meteohub,2011-06-13 13:42:00,
2011-06-13 14:43:00,62.1,51.4,29.85,NW,313,7.0,16.0,68,0.00,,,0.02,1004.0,meteohub,2011-06-13 13:43:00,
2011-06-13 14:47:00,62.1,51.4,29.85,West,259,13.0,17.0,68,0.00,,,0.02,1004.0,meteohub,2011-06-13 13:47:00,
2011-06-13 14:52:00,62.2,51.1,29.85,NW,309,4.0,19.0,67,0.00,,,0.02,548.0,meteohub,2011-06-13 13:52:00,
2011-06-13 14:55:00,62.2,51.6,29.86,West,274,8.0,19.0,68,0.00,,,0.02,396.0,meteohub,2011-06-13 13:55:00,
2011-06-13 14:57:00,62.1,50.5,29.86,WNW,294,8.0,19.0,66,0.00,,,0.02,332.0,meteohub,2011-06-13 13:57:00,
2011-06-13 15:02:00,61.5,50.5,29.86,West,262,13.0,19.0,67,0.00,,,0.02,376.0,meteohub,2011-06-13 14:02:00,
2011-06-13 15:07:00,61.2,50.2,29.86,West,270,9.0,19.0,67,0.00,,,0.02,434.0,meteohub,2011-06-13 14:07:00,
2011-06-13 15:12:00,61.2,50.2,29.86,West,275,7.0,23.0,67,0.00,,,0.02,350.0,meteohub,2011-06-13 14:12:00,
2011-06-13 15:17:00,61.5,50.9,29.86,West,274,16.0,23.0,68,0.00,,,0.02,332.0,meteohub,2011-06-13 14:17:00,
2011-06-13 15:20:00,61.3,49.8,29.87,West,267,12.0,23.0,66,0.00,,,0.02,415.0,meteohub,2011-06-13 14:20:00,
2011-06-13 15:22:00,61.3,49.8,29.86,WSW,248,12.0,22.0,66,0.00,,,0.02,345.0,meteohub,2011-06-13 14:22:00,
2011-06-13 15:23:00,61.3,49.8,29.86,SW,232,8.0,22.0,66,0.00,,,0.02,345.0,meteohub,2011-06-13 14:23:00,
2011-06-13 15:27:00,61.0,49.5,29.87,SSW,205,7.0,19.0,66,0.00,,,0.02,311.0,meteohub,2011-06-13 14:27:00,
2011-06-13 15:28:00,61.0,50.0,29.87,West,275,7.0,19.0,67,0.00,,,0.02,376.0,meteohub,2011-06-13 14:28:00,
2011-06-13 15:29:00,61.0,50.0,29.87,West,269,12.0,19.0,67,0.00,,,0.02,346.0,meteohub,2011-06-13 14:29:00,
2011-06-13 15:31:00,60.8,49.8,29.87,West,268,7.0,19.0,67,0.00,,,0.02,390.0,meteohub,2011-06-13 14:31:00,
2011-06-13 15:32:00,61.0,50.0,29.87,WNW,302,14.0,19.0,67,0.00,,,0.02,441.0,meteohub,2011-06-13 14:32:00,
2011-06-13 15:36:00,61.2,50.2,29.87,WNW,287,6.0,19.0,67,0.00,,,0.02,341.0,meteohub,2011-06-13 14:36:00,
2011-06-13 15:37:00,61.2,50.5,29.87,NNW,329,7.0,19.0,68,0.00,,,0.02,415.0,meteohub,2011-06-13 14:37:00,
2011-06-13 15:41:00,61.3,50.4,29.88,WNW,287,11.0,19.0,67,0.00,,,0.02,373.0,meteohub,2011-06-13 14:41:00,
2011-06-13 15:46:00,61.5,50.9,29.88,NW,307,7.0,17.0,68,0.00,,,0.02,311.0,meteohub,2011-06-13 14:46:00,
2011-06-13 15:51:00,61.9,51.3,29.88,West,275,4.0,16.0,68,0.00,,,0.02,784.0,meteohub,2011-06-13 14:51:00,
2011-06-13 15:56:00,62.8,51.6,29.88,West,263,4.0,14.0,67,0.00,,,0.02,784.0,meteohub,2011-06-13 14:56:00,
2011-06-13 16:01:00,63.3,51.8,29.88,WSW,248,15.0,16.0,66,0.00,,,0.02,802.0,meteohub,2011-06-13 15:01:00,
2011-06-13 16:06:00,63.7,50.4,29.88,WSW,258,11.0,17.0,62,0.00,,,0.02,810.0,meteohub,2011-06-13 15:06:00,
2011-06-13 16:07:00,63.7,50.9,29.88,West,280,6.0,17.0,63,0.00,,,0.02,810.0,meteohub,2011-06-13 15:07:00,
2011-06-13 16:11:00,62.8,50.0,29.88,West,266,17.0,17.0,63,0.00,,,0.02,197.0,meteohub,2011-06-13 15:11:00,
2011-06-13 16:16:00,61.9,48.7,29.89,West,268,8.0,17.0,62,0.00,,,0.02,225.0,meteohub,2011-06-13 15:16:00,
2011-06-13 16:22:00,61.7,49.5,29.89,NW,311,11.0,17.0,64,0.00,,,0.02,373.0,meteohub,2011-06-13 15:22:00,
2011-06-13 16:23:00,62.1,50.2,29.89,West,263,14.0,17.0,65,0.00,,,0.02,821.0,meteohub,2011-06-13 15:23:00,
2011-06-13 16:27:00,62.6,49.8,29.89,WNW,292,11.0,17.0,63,0.00,,,0.02,756.0,meteohub,2011-06-13 15:27:00,
2011-06-13 16:28:00,62.6,49.5,29.89,WNW,290,9.0,17.0,62,0.00,,,0.02,149.0,meteohub,2011-06-13 15:28:00,
2011-06-13 16:32:00,62.4,50.5,29.89,WSW,254,10.0,17.0,65,0.00,,,0.02,724.0,meteohub,2011-06-13 15:32:00,
2011-06-13 16:33:00,62.6,50.2,29.89,NW,309,6.0,17.0,64,0.00,,,0.02,724.0,meteohub,2011-06-13 15:33:00,
2011-06-13 16:34:00,62.8,50.0,29.89,WNW,286,11.0,17.0,63,0.00,,,0.02,724.0,meteohub,2011-06-13 15:34:00,
2011-06-13 16:37:00,62.6,49.8,29.89,NW,304,9.0,18.0,63,0.00,,,0.02,777.0,meteohub,2011-06-13 15:37:00,
2011-06-13 16:42:00,62.6,48.9,29.89,NW,321,11.0,18.0,61,0.00,,,0.02,636.0,meteohub,2011-06-13 15:42:00,
2011-06-13 16:47:00,63.0,50.2,29.89,West,273,11.0,21.0,63,0.00,,,0.02,647.0,meteohub,2011-06-13 15:47:00,
2011-06-13 16:52:00,62.4,48.7,29.89,West,279,15.0,21.0,61,0.00,,,0.02,123.0,meteohub,2011-06-13 15:52:00,
2011-06-13 16:53:00,62.2,48.6,29.89,WNW,285,9.0,21.0,61,0.00,,,0.02,123.0,meteohub,2011-06-13 15:53:00,
2011-06-13 16:58:00,62.1,49.8,29.89,WNW,300,10.0,21.0,64,0.00,,,0.02,605.0,meteohub,2011-06-13 15:58:00,
2011-06-13 17:03:00,63.0,50.2,29.89,West,262,10.0,19.0,63,0.00,,,0.02,592.0,meteohub,2011-06-13 16:03:00,
2011-06-13 17:08:00,63.1,50.4,29.89,WNW,303,10.0,18.0,63,0.00,,,0.02,587.0,meteohub,2011-06-13 16:08:00,
2011-06-13 17:13:00,63.7,50.4,29.90,NW,308,5.0,17.0,62,0.00,,,0.02,582.0,meteohub,2011-06-13 16:13:00,
2011-06-13 17:18:00,62.8,48.2,29.90,NNW,329,9.0,19.0,59,0.00,,,0.02,127.0,meteohub,2011-06-13 16:18:00,
2011-06-13 17:19:00,62.4,48.4,29.90,NW,306,9.0,19.0,60,0.00,,,0.02,134.0,meteohub,2011-06-13 16:19:00,
2011-06-13 17:23:00,61.7,49.5,29.90,WNW,294,15.0,22.0,64,0.00,,,0.02,160.0,meteohub,2011-06-13 16:23:00,
2011-06-13 17:24:00,61.7,48.9,29.90,WNW,300,13.0,22.0,63,0.00,,,0.02,160.0,meteohub,2011-06-13 16:24:00,
2011-06-13 17:28:00,62.2,50.4,29.90,WNW,301,5.0,22.0,65,0.00,,,0.02,559.0,meteohub,2011-06-13 16:28:00,
2011-06-13 17:29:00,62.6,50.7,29.90,WNW,294,8.0,22.0,65,0.00,,,0.02,548.0,meteohub,2011-06-13 16:29:00,
2011-06-13 17:30:00,62.8,50.4,29.90,SW,234,9.0,22.0,64,0.00,,,0.02,548.0,meteohub,2011-06-13 16:30:00,
2011-06-13 17:34:00,62.6,49.8,29.91,West,274,9.0,21.0,63,0.00,,,0.02,596.0,meteohub,2011-06-13 16:34:00,
2011-06-13 17:35:00,62.6,49.8,29.90,NW,319,10.0,21.0,63,0.00,,,0.02,596.0,meteohub,2011-06-13 16:35:00,
2011-06-13 17:38:00,62.2,49.1,29.90,WNW,297,7.0,21.0,62,0.00,,,0.02,171.0,meteohub,2011-06-13 16:38:00,
2011-06-13 17:41:00,61.9,49.1,29.91,West,272,7.0,20.0,63,0.00,,,0.02,376.0,meteohub,2011-06-13 16:41:00,
2011-06-13 17:43:00,62.1,49.3,29.91,NW,324,10.0,20.0,63,0.00,,,0.02,313.0,meteohub,2011-06-13 16:43:00,
2011-06-13 17:44:00,62.1,49.3,29.91,WNW,296,17.0,20.0,63,0.00,,,0.02,313.0,meteohub,2011-06-13 16:44:00,
2011-06-13 17:48:00,62.2,49.1,29.91,West,274,17.0,20.0,62,0.00,,,0.02,102.0,meteohub,2011-06-13 16:48:00,
2011-06-13 17:49:00,62.1,49.3,29.91,NW,322,4.0,20.0,63,0.00,,,0.02,137.0,meteohub,2011-06-13 16:49:00,
2011-06-13 17:54:00,62.4,49.6,29.91,NW,318,7.0,22.0,63,0.00,,,0.02,95.0,meteohub,2011-06-13 16:54:00,
2011-06-13 17:59:00,62.1,48.9,29.91,West,275,7.0,22.0,62,0.00,,,0.02,109.0,meteohub,2011-06-13 16:59:00,
2011-06-13 18:05:00,61.2,48.9,29.91,WSW,255,9.0,22.0,64,0.00,,,0.02,137.0,meteohub,2011-06-13 17:05:00,
2011-06-13 18:10:00,61.5,49.6,29.91,NW,305,9.0,19.0,65,0.00,,,0.02,109.0,meteohub,2011-06-13 17:10:00,
2011-06-13 18:15:00,61.3,49.1,29.91,NNW,333,14.0,19.0,64,0.00,,,0.02,114.0,meteohub,2011-06-13 17:15:00,
2011-06-13 18:20:00,61.3,49.5,29.91,NW,313,5.0,19.0,65,0.00,,,0.02,137.0,meteohub,2011-06-13 17:20:00,
2011-06-13 18:25:00,61.0,48.7,29.91,NW,315,13.0,17.0,64,0.00,,,0.02,86.0,meteohub,2011-06-13 17:25:00,
2011-06-13 18:26:00,60.8,48.6,29.91,West,280,7.0,18.0,64,0.00,,,0.02,100.0,meteohub,2011-06-13 17:26:00,
2011-06-13 18:30:00,60.6,48.7,29.91,West,279,14.0,21.0,65,0.00,,,0.02,114.0,meteohub,2011-06-13 17:30:00,
2011-06-13 18:31:00,60.8,48.9,29.91,NW,316,6.0,21.0,65,0.00,,,0.02,116.0,meteohub,2011-06-13 17:31:00,
2011-06-13 18:34:00,61.2,48.9,29.92,NW,305,12.0,21.0,64,0.00,,,0.02,60.0,meteohub,2011-06-13 17:34:00,
2011-06-13 18:35:00,61.2,48.9,29.92,West,271,9.0,23.0,64,0.00,,,0.02,54.0,meteohub,2011-06-13 17:35:00,
2011-06-13 18:36:00,61.2,48.9,29.92,NW,306,15.0,23.0,64,0.00,,,0.02,53.0,meteohub,2011-06-13 17:36:00,
2011-06-13 18:39:00,61.3,49.1,29.92,NW,322,9.0,23.0,64,0.00,,,0.02,49.0,meteohub,2011-06-13 17:39:00,
2011-06-13 18:41:00,61.3,49.5,29.92,West,281,21.0,23.0,65,0.00,,,0.02,51.0,meteohub,2011-06-13 17:41:00,
2011-06-13 18:44:00,61.3,48.6,29.92,NNW,331,9.0,23.0,63,0.00,,,0.02,49.0,meteohub,2011-06-13 17:44:00,
2011-06-13 18:46:00,61.3,48.6,29.92,NW,305,5.0,23.0,63,0.00,,,0.02,49.0,meteohub,2011-06-13 17:46:00,
2011-06-13 18:49:00,61.2,48.4,29.92,NW,304,6.0,23.0,63,0.00,,,0.02,69.0,meteohub,2011-06-13 17:49:00,
2011-06-13 18:50:00,61.2,48.4,29.92,NW,304,2.0,23.0,63,0.00,,,0.02,69.0,meteohub,2011-06-13 17:50:00,
2011-06-13 18:55:00,61.2,48.4,29.93,WSW,243,4.0,23.0,63,0.00,,,0.02,53.0,meteohub,2011-06-13 17:55:00,
2011-06-13 19:00:00,61.3,49.1,29.93,NW,306,10.0,23.0,64,0.00,,,0.02,49.0,meteohub,2011-06-13 18:00:00,
2011-06-13 19:05:00,61.2,48.9,29.93,WNW,298,7.0,17.0,64,0.00,,,0.02,47.0,meteohub,2011-06-13 18:05:00,
2011-06-13 19:10:00,61.2,49.6,29.94,West,267,10.0,14.0,66,0.00,,,0.02,46.0,meteohub,2011-06-13 18:10:00,
2011-06-13 19:12:00,61.2,49.3,29.94,WNW,300,6.0,14.0,65,0.00,,,0.02,46.0,meteohub,2011-06-13 18:12:00,
2011-06-13 19:15:00,61.0,49.1,29.94,NW,308,3.0,14.0,65,0.00,,,0.02,47.0,meteohub,2011-06-13 18:15:00,
2011-06-13 19:20:00,60.8,48.9,29.94,WNW,299,6.0,17.0,65,0.00,,,0.02,46.0,meteohub,2011-06-13 18:20:00,
2011-06-13 19:21:00,60.6,48.7,29.94,WNW,284,9.0,17.0,65,0.00,,,0.02,46.0,meteohub,2011-06-13 18:21:00,
2011-06-13 19:26:00,60.4,48.2,29.94,West,269,16.0,17.0,64,0.00,,,0.02,46.0,meteohub,2011-06-13 18:26:00,
2011-06-13 19:29:00,60.3,48.4,29.94,NW,319,13.0,17.0,65,0.00,,,0.02,40.0,meteohub,2011-06-13 18:29:00,
2011-06-13 19:31:00,60.3,48.4,29.94,West,269,2.0,16.0,65,0.00,,,0.02,44.0,meteohub,2011-06-13 18:31:00,
2011-06-13 19:35:00,60.3,48.4,29.94,NW,321,9.0,16.0,65,0.00,,,0.02,39.0,meteohub,2011-06-13 18:35:00,
2011-06-13 19:36:00,60.1,48.2,29.94,WNW,288,7.0,17.0,65,0.00,,,0.02,40.0,meteohub,2011-06-13 18:36:00,
2011-06-13 19:39:00,59.9,48.0,29.94,WNW,300,5.0,17.0,65,0.00,,,0.02,44.0,meteohub,2011-06-13 18:39:00,
2011-06-13 19:42:00,59.7,48.0,29.94,WNW,290,8.0,17.0,65,0.00,,,0.02,42.0,meteohub,2011-06-13 18:42:00,
2011-06-13 19:44:00,59.7,48.4,29.94,West,275,11.0,17.0,66,0.00,,,0.02,35.0,meteohub,2011-06-13 18:44:00,
2011-06-13 19:49:00,59.5,47.8,29.94,WNW,303,10.0,17.0,65,0.00,,,0.02,26.0,meteohub,2011-06-13 18:49:00,
2011-06-13 19:50:00,59.4,47.7,29.94,NW,306,11.0,17.0,65,0.00,,,0.02,26.0,meteohub,2011-06-13 18:50:00,
2011-06-13 19:55:00,59.2,47.8,29.94,WNW,292,5.0,18.0,66,0.00,,,0.02,28.0,meteohub,2011-06-13 18:55:00,
2011-06-13 20:00:00,59.0,48.0,29.94,WNW,292,6.0,18.0,67,0.00,,,0.02,30.0,meteohub,2011-06-13 19:00:00,
2011-06-13 20:01:00,58.8,47.8,29.94,WNW,298,4.0,18.0,67,0.00,,,0.02,33.0,meteohub,2011-06-13 19:01:00,
2011-06-13 20:05:00,58.6,47.7,29.95,NW,307,4.0,18.0,67,0.00,,,0.02,42.0,meteohub,2011-06-13 19:05:00,
2011-06-13 20:06:00,58.6,48.2,29.95,WNW,300,11.0,15.0,68,0.00,,,0.02,37.0,meteohub,2011-06-13 19:06:00,
2011-06-13 20:10:00,58.6,48.2,29.95,WNW,298,13.0,16.0,68,0.00,,,0.02,28.0,meteohub,2011-06-13 19:10:00,
2011-06-13 20:15:00,58.6,48.2,29.95,WNW,290,4.0,16.0,68,0.00,,,0.02,35.0,meteohub,2011-06-13 19:15:00,
2011-06-13 20:20:00,58.6,48.2,29.95,WNW,296,4.0,16.0,68,0.00,,,0.02,32.0,meteohub,2011-06-13 19:20:00,
2011-06-13 20:21:00,58.6,48.6,29.95,WNW,293,6.0,16.0,69,0.00,,,0.02,32.0,meteohub,2011-06-13 19:21:00,
2011-06-13 20:22:00,58.6,48.6,29.95,NW,304,8.0,16.0,69,0.00,,,0.02,35.0,meteohub,2011-06-13 19:22:00,
2011-06-13 20:26:00,58.6,48.6,29.96,West,277,0.0,14.0,69,0.00,,,0.02,35.0,meteohub,2011-06-13 19:26:00,
2011-06-13 20:31:00,58.6,48.6,29.96,West,277,7.0,10.0,69,0.00,,,0.02,21.0,meteohub,2011-06-13 19:31:00,
2011-06-13 20:36:00,58.5,48.4,29.96,WNW,283,12.0,15.0,69,0.00,,,0.02,19.0,meteohub,2011-06-13 19:36:00,
2011-06-13 20:38:00,58.5,48.4,29.96,NW,309,4.0,15.0,69,0.00,,,0.02,18.0,meteohub,2011-06-13 19:38:00,
2011-06-13 20:41:00,58.3,48.2,29.96,NNW,327,10.0,15.0,69,0.00,,,0.02,14.0,meteohub,2011-06-13 19:41:00,
2011-06-13 20:47:00,58.1,48.0,29.96,NW,315,4.0,15.0,69,0.00,,,0.02,14.0,meteohub,2011-06-13 19:47:00,
2011-06-13 20:52:00,57.9,48.2,29.96,NW,321,4.0,14.0,70,0.00,,,0.02,12.0,meteohub,2011-06-13 19:52:00,
2011-06-13 20:57:00,57.6,47.8,29.96,NW,312,3.0,14.0,70,0.00,,,0.02,11.0,meteohub,2011-06-13 19:57:00,
2011-06-13 21:02:00,57.4,48.0,29.97,West,273,2.0,13.0,71,0.00,,,0.02,9.0,meteohub,2011-06-13 20:02:00,
2011-06-13 21:07:00,57.0,47.7,29.97,WNW,301,4.0,12.0,71,0.00,,,0.02,9.0,meteohub,2011-06-13 20:07:00,
2011-06-13 21:12:00,56.8,47.5,29.97,WNW,282,3.0,12.0,71,0.00,,,0.02,9.0,meteohub,2011-06-13 20:12:00,
2011-06-13 21:17:00,56.7,47.7,29.97,WNW,298,3.0,12.0,72,0.00,,,0.02,7.0,meteohub,2011-06-13 20:17:00,
2011-06-13 21:18:00,56.7,47.7,29.97,WNW,290,2.0,12.0,72,0.00,,,0.02,7.0,meteohub,2011-06-13 20:18:00,
2011-06-13 21:23:00,56.3,47.5,29.98,West,259,4.0,11.0,72,0.00,,,0.02,5.0,meteohub,2011-06-13 20:23:00,
2011-06-13 21:28:00,55.9,47.5,29.98,WNW,289,1.0,11.0,73,0.00,,,0.02,5.0,meteohub,2011-06-13 20:28:00,
2011-06-13 21:29:00,55.9,47.5,29.98,WNW,292,2.0,11.0,73,0.00,,,0.02,0.0,meteohub,2011-06-13 20:29:00,
2011-06-13 21:34:00,55.8,47.7,29.98,WNW,296,0.0,11.0,74,0.00,,,0.02,0.0,meteohub,2011-06-13 20:34:00,
2011-06-13 21:38:00,55.6,47.5,29.98,WNW,295,1.0,9.0,74,0.00,,,0.02,0.0,meteohub,2011-06-13 20:38:00,
2011-06-13 21:39:00,55.4,47.3,29.98,WNW,295,2.0,9.0,74,0.00,,,0.02,0.0,meteohub,2011-06-13 20:39:00,
2011-06-13 21:41:00,55.2,47.1,29.98,WNW,294,1.0,7.0,74,0.00,,,0.02,0.0,meteohub,2011-06-13 20:41:00,
2011-06-13 21:45:00,55.0,47.3,29.98,WNW,292,0.0,7.0,75,0.00,,,0.02,0.0,meteohub,2011-06-13 20:45:00,
2011-06-13 21:46:00,55.0,47.3,29.99,WNW,291,4.0,7.0,75,0.00,,,0.02,0.0,meteohub,2011-06-13 20:46:00,
2011-06-13 21:51:00,54.9,47.1,29.99,WNW,286,3.0,6.0,75,0.00,,,0.02,0.0,meteohub,2011-06-13 20:51:00,
2011-06-13 21:56:00,54.7,47.3,29.99,WNW,289,2.0,6.0,76,0.00,,,0.02,0.0,meteohub,2011-06-13 20:56:00,
2011-06-13 22:01:00,54.5,47.5,29.99,WNW,290,0.0,6.0,77,0.00,,,0.02,0.0,meteohub,2011-06-13 21:01:00,
2011-06-13 22:06:00,54.3,47.3,29.99,WNW,295,0.0,6.0,77,0.00,,,0.02,0.0,meteohub,2011-06-13 21:06:00,
2011-06-13 22:11:00,54.1,47.1,29.99,WNW,295,0.0,6.0,77,0.00,,,0.02,0.0,meteohub,2011-06-13 21:11:00,
2011-06-13 22:16:00,54.0,47.3,30.00,WNW,295,0.0,6.0,78,0.00,,,0.02,0.0,meteohub,2011-06-13 21:16:00,
2011-06-13 22:21:00,53.6,46.9,30.00,WNW,295,0.0,3.0,78,0.00,,,0.02,0.0,meteohub,2011-06-13 21:21:00,
2011-06-13 22:22:00,53.6,46.9,30.00,WNW,295,0.0,3.0,78,0.00,,,0.02,0.0,meteohub,2011-06-13 21:22:00,
2011-06-13 22:26:00,53.4,47.1,30.00,WNW,295,0.0,3.0,79,0.00,,,0.02,0.0,meteohub,2011-06-13 21:26:00,
2011-06-13 22:27:00,53.2,46.9,30.00,WNW,295,2.0,3.0,79,0.00,,,0.02,0.0,meteohub,2011-06-13 21:27:00,
2011-06-13 22:32:00,53.2,46.9,30.00,WNW,295,0.0,3.0,79,0.00,,,0.02,0.0,meteohub,2011-06-13 21:32:00,
2011-06-13 22:33:00,53.1,46.8,30.00,WNW,295,0.0,3.0,79,0.00,,,0.02,0.0,meteohub,2011-06-13 21:33:00,
2011-06-13 22:37:00,52.9,46.9,30.00,WNW,295,1.0,3.0,80,0.00,,,0.02,0.0,meteohub,2011-06-13 21:37:00,
2011-06-13 22:38:00,52.9,46.9,30.00,WNW,295,0.0,3.0,80,0.00,,,0.02,0.0,meteohub,2011-06-13 21:38:00,
2011-06-13 22:42:00,52.9,46.9,30.00,WNW,295,0.0,3.0,80,0.00,,,0.02,0.0,meteohub,2011-06-13 21:42:00,
2011-06-13 22:43:00,52.9,46.9,30.00,WNW,295,0.0,3.0,80,0.00,,,0.02,0.0,meteohub,2011-06-13 21:43:00,
2011-06-13 22:44:00,52.9,46.9,30.00,WNW,295,0.0,3.0,80,0.00,,,0.02,0.0,meteohub,2011-06-13 21:44:00,
2011-06-13 22:48:00,52.7,47.1,30.00,WNW,295,0.0,2.0,81,0.00,,,0.02,0.0,meteohub,2011-06-13 21:48:00,
2011-06-13 22:53:00,52.7,47.1,30.00,WNW,295,0.0,2.0,81,0.00,,,0.02,0.0,meteohub,2011-06-13 21:53:00,
2011-06-13 22:58:00,52.5,46.9,30.00,WNW,295,0.0,2.0,81,0.00,,,0.02,0.0,meteohub,2011-06-13 21:58:00,
2011-06-13 23:03:00,52.3,46.8,30.00,WNW,295,0.0,2.0,81,0.00,,,0.02,0.0,meteohub,2011-06-13 22:03:00,
2011-06-13 23:08:00,52.3,46.8,30.00,WNW,295,0.0,2.0,81,0.00,,,0.02,0.0,meteohub,2011-06-13 22:08:00,
2011-06-13 23:13:00,52.3,46.8,30.01,WNW,295,0.0,1.0,81,0.00,,,0.02,0.0,meteohub,2011-06-13 22:13:00,
2011-06-13 23:18:00,52.3,46.8,30.01,WNW,295,0.0,1.0,81,0.00,,,0.02,0.0,meteohub,2011-06-13 22:18:00,
2011-06-13 23:19:00,52.3,46.8,30.01,WNW,295,0.0,1.0,81,0.00,,,0.02,0.0,meteohub,2011-06-13 22:19:00,
2011-06-13 23:24:00,52.3,46.8,30.01,WNW,295,0.0,0.0,81,0.00,,,0.02,0.0,meteohub,2011-06-13 22:24:00,
2011-06-13 23:29:00,52.3,46.8,30.02,WNW,295,0.0,1.0,81,0.00,,,0.02,0.0,meteohub,2011-06-13 22:29:00,
2011-06-13 23:34:00,52.2,46.6,30.02,WNW,295,0.0,1.0,81,0.00,,,0.02,0.0,meteohub,2011-06-13 22:34:00,
2011-06-13 23:35:00,52.2,46.6,30.02,WNW,295,0.0,1.0,81,0.00,,,0.02,0.0,meteohub,2011-06-13 22:35:00,
2011-06-13 23:36:00,52.2,46.6,30.02,WNW,295,0.0,1.0,81,0.00,,,0.02,0.0,meteohub,2011-06-13 22:36:00,
2011-06-13 23:40:00,52.2,46.6,30.02,WNW,295,0.0,1.0,81,0.00,,,0.02,0.0,meteohub,2011-06-13 22:40:00,
2011-06-13 23:45:00,52.0,46.6,30.02,WNW,295,2.0,2.0,82,0.00,,,0.02,0.0,meteohub,2011-06-13 22:45:00,
2011-06-13 23:46:00,52.0,46.6,30.01,WNW,295,1.0,3.0,82,0.00,,,0.02,0.0,meteohub,2011-06-13 22:46:00,
2011-06-13 23:50:00,51.8,46.4,30.02,WNW,295,0.0,3.0,82,0.00,,,0.02,0.0,meteohub,2011-06-13 22:50:00,
2011-06-13 23:51:00,51.8,46.4,30.02,WNW,295,0.0,3.0,82,0.00,,,0.02,0.0,meteohub,2011-06-13 22:51:00,
2011-06-13 23:56:00,51.6,46.2,30.02,WNW,295,0.0,3.0,82,0.00,,,0.02,0.0,meteohub,2011-06-13 22:56:00,